OBJECT M, 64887

Orbit data source: Space-Track

You're viewing an Uncataloged Satellite

Recently launched and/or uncataloged satellites may have evolving metadata. Metadata may include but not limited to: Owner, Maufacturer, Bus, Motor, and Mission.

OBJECT M, 64887 is a satellite in SSO that was launched on Fri, 25 Jul 2025 UTC via a SOYUZ-2-1B launch vehicle from the Vostochny Cosmodrome (VOSTO). Unknown objects in Earth's orbit typically refer to objects detected orbiting the Earth but have not yet been identified or cataloged. These objects could be anything from previously untracked satellites, spent rocket stages, debris from satellite collisions, or even natural meteoroids temporarily captured by Earth's gravity.

Not visible in the next 10 days
Identifier
64887, 2025-155M
Orbit
SSO
Country
Flag of TBDTBD
Related business
None
Manufacturer
Unknown
Mission
Operational Commercial Technology
Bus & Motor
Unknown
Mass
Unknown
Launch date (UTC)
2025-07-25 (11 months ago)
Launch vehicle
SOYUZ-2-1B
Launch site
Vostochny Cosmodrome (VOSTO)
Object type
Unknown
Shape & HBR
Box, 1.1 m
Radar Cross Section
0.035 m², Medium (>0.1 m² and < 1m²)

Expand to show TLE details & history
Last TLE update: 12 hours ago

TLE from 12 hours ago
0 OBJECT M
1 64887U 25155M   26171.35900935  .00022341  00000-0  59018-3 0  9990
2 64887  97.4504 141.6943 0009104 136.7695 223.4266 15.38411574 81376
Epoch: 2026-06-20T08:36Z
TLE epoch observation values (Epoch: 2026-06-20T08:36:58.407Z)
Latitude
-0.00005°
Longitude
103.87618°
Altitude
458.439 km
Speed
7.635 km/s
True Right ascension
09h 26m 46s
True Declination
0° 00' 00"
Sunlit
Object was in daylight at epoch
Visualization orbit readout
Latitude
Unknown
Longitude
Unknown
Altitude
Unknown
Speed
Unknown
Apparent Right ascension
Unknown
Apparent Declination
Unknown
Sunlit
N/A
Visualization observer readout
Local Sidereal Time
07:22:48
Azimuth
Unknown
Elevation
Unknown
Doppler factor
Unknown
Orbital elements
Apogee altitude
453.963 km
Perigee altitude
441.535 km
Semi-major axis
6,825.886 km
Eccentricity
0.00091
Inclination
97.4504°
RAAN
141.6943°
Arg. of periapsis
136.7695°
True anomaly
223.35494°
Mean anomaly
223.4266°
Eccentric anomaly
223.39077°
Mean motion
3.84862 °/min
Orbital period
93.54 mins
BSTAR
0.00059018
Loading maneuver chart data...
Computing Atmospheric mass density...
Loading historical data...
Loading historical data...
Loading historical data...
Loading historical data...
Loading historical data...
Loading historical data...
Loading historical data...

Documentation

Showing up to 5 results
|